Lake Superior Weather Center

Moon Phase Calendar



Lake Superior Water Level
Online Cameras

 


      

Current Conditions in Copper Harbor
4/22/2021 9:16:49 PM

41°F
Feels Like 36
Clear
Humidity
52%
Pressure
29.83"
Wind
8 mph (WSW)
Dew Point
26°F
UV Index
0/10 (Low)
Visibility
6 mi

Hourly Forecast

Date & Time Thu, Apr 22
9:00 PM
Thu, Apr 22
10:00 PM
Thu, Apr 22
11:00 PM
Fri, Apr 23
12:00 AM
Fri, Apr 23
1:00 AM
Fri, Apr 23
2:00 AM
Fri, Apr 23
3:00 AM
Fri, Apr 23
4:00 AM
Fri, Apr 23
5:00 AM
Fri, Apr 23
6:00 AM
Fri, Apr 23
7:00 AM
Fri, Apr 23
8:00 AM
Fri, Apr 23
9:00 AM
Fri, Apr 23
10:00 AM
Fri, Apr 23
11:00 AM
Fri, Apr 23
12:00 PM
Fri, Apr 23
1:00 PM
Fri, Apr 23
2:00 PM
Fri, Apr 23
3:00 PM
Fri, Apr 23
4:00 PM
Fri, Apr 23
5:00 PM
Fri, Apr 23
6:00 PM
Fri, Apr 23
7:00 PM
Fri, Apr 23
8:00 PM
Fri, Apr 23
9:00 PM
Fri, Apr 23
10:00 PM
Fri, Apr 23
11:00 PM
Sat, Apr 24
12:00 AM
Sat, Apr 24
1:00 AM
Sat, Apr 24
2:00 AM
Sat, Apr 24
3:00 AM
Sat, Apr 24
4:00 AM
Sat, Apr 24
5:00 AM
Sat, Apr 24
6:00 AM
Sat, Apr 24
7:00 AM
Sat, Apr 24
8:00 AM
Sat, Apr 24
9:00 AM
Sat, Apr 24
10:00 AM
Sat, Apr 24
11:00 AM
Sat, Apr 24
12:00 PM
Sat, Apr 24
1:00 PM
Sat, Apr 24
2:00 PM
Sat, Apr 24
3:00 PM
Sat, Apr 24
4:00 PM
Sat, Apr 24
5:00 PM
Sat, Apr 24
6:00 PM
Sat, Apr 24
7:00 PM
Sat, Apr 24
8:00 PM
Condition
Clear

Clear

Clouds

Clouds

Clouds

Clouds

Clouds

Clouds

Clouds

Clouds

Clouds

Clouds

Clouds

Clouds

Clouds

Clouds

Clouds

Clouds

Clouds

Clouds

Clouds

Clouds

Clouds

Clouds

Clouds

Clouds

Clouds

Rain

Rain

Clouds

Clouds

Clouds

Clouds

Clouds

Clouds

Clouds

Clouds

Clouds

Snow

Snow

Snow

Snow

Snow

Snow

Snow

Clouds

Clouds

Clouds
Temperature 41°F40°F40°F39°F39°F39°F39°F39°F39°F39°F39°F39°F39°F39°F39°F39°F39°F39°F39°F40°F40°F40°F39°F39°F39°F39°F38°F38°F38°F38°F38°F38°F38°F37°F37°F36°F36°F34°F32°F31°F31°F31°F31°F32°F32°F33°F33°F33°F
Feels Like 34°F33°F32°F31°F31°F31°F30°F30°F29°F29°F29°F30°F30°F30°F29°F29°F29°F29°F29°F30°F30°F31°F31°F31°F32°F33°F33°F32°F32°F32°F32°F32°F33°F32°F31°F30°F26°F22°F19°F17°F16°F17°F17°F18°F19°F20°F21°F21°F
Cloudiness 10%10%15%16%17%22%16%15%16%15%15%15%64%57%71%78%83%86%100%100%100%100%100%100%98%99%99%99%100%100%100%100%100%100%100%100%100%100%100%100%100%100%100%100%100%100%100%100%
Visibility 6 mi6 mi6 mi6 mi6 mi6 mi6 mi6 mi6 mi6 mi6 mi6 mi6 mi6 mi6 mi6 mi6 mi6 mi6 mi6 mi6 mi6 mi6 mi6 mi6 mi6 mi6 mi6 mi6 mi6 mi6 mi6 mi6 mi6 mi6 mi4 mi1 mi1 mi0 mi0 mi0 mi0 mi0 mi0 mi3 mi6 mi6 mi6 mi
Precipitation 0%0%0%0%0%0%0%0%0%0%0%0%0%0%0%0%0%0%0%0%0%0%0%0%1%6%18%34%45%49%50%44%41%37%35%36%24%28%41%90%100%100%89%86%78%78%71%65%
Humidity 52%57%63%67%73%77%84%85%85%85%84%83%80%80%79%80%84%87%87%86%85%86%88%91%92%92%93%95%96%96%97%97%97%97%97%98%98%96%97%94%93%92%92%91%86%81%78%76%
Dew Point 26°F27°F29°F30°F31°F33°F35°F35°F35°F35°F35°F34°F34°F34°F34°F34°F35°F36°F36°F36°F36°F36°F36°F36°F37°F37°F37°F37°F37°F37°F37°F37°F37°F37°F36°F36°F35°F33°F32°F30°F29°F29°F29°F29°F29°F28°F27°F27°F
Pressure 29.83"29.83"29.83"29.83"29.83"29.83"29.8"29.83"29.83"29.83"29.83"29.85"29.85"29.85"29.85"29.85"29.85"29.85"29.85"29.85"29.85"29.85"29.88"29.88"29.88"29.88"29.88"29.88"29.88"29.85"29.85"29.85"29.85"29.85"29.85"29.85"29.85"29.88"29.88"29.88"29.91"29.91"29.91"29.94"29.94"29.94"29.94"29.94"
Wind Speed 11.1 mph13.3 mph14.8 mph14.5 mph13.6 mph13.8 mph15.4 mph17.1 mph17.1 mph18.1 mph18.2 mph17.8 mph19.7 mph18.7 mph21.2 mph22.7 mph22.7 mph23.1 mph22.6 mph21.2 mph20.3 mph17.5 mph14.7 mph11.9 mph10.2 mph8.6 mph7.5 mph8 mph7.9 mph8.7 mph7.9 mph7.4 mph6.6 mph6.8 mph7.5 mph8.4 mph15.3 mph23.6 mph26.1 mph27 mph26.2 mph25.6 mph25.3 mph25.3 mph25.1 mph24.3 mph23.1 mph21.9 mph
Wind
Direction
181°
S
177°
S
182°
S
187°
S
196°
SSW
217°
SW
244°
WSW
252°
WSW
249°
WSW
246°
WSW
248°
WSW
249°
WSW
246°
WSW
244°
WSW
245°
WSW
246°
WSW
247°
WSW
244°
WSW
247°
WSW
250°
WSW
252°
WSW
254°
WSW
261°
W
263°
W
265°
W
263°
W
255°
WSW
234°
SW
232°
SW
238°
WSW
240°
WSW
234°
SW
248°
WSW
270°
W
297°
WNW
333°
NNW

N
15°
NNE
15°
NNE
16°
NNE
15°
NNE
13°
NNE
10°
N

N

N

N

N
13°
NNE

Daily Forecast

Date High Low Precip. Humidity
Today
Apr 22

Clouds
41 °F
34 °F
0%
79%
Friday
Apr 23

Clouds
40 °F
38 °F
18%
84%
Saturday
Apr 24

Snow
38 °F
31 °F
100%
93%
Sunday
Apr 25

Clear
37 °F
31 °F
0%
57%
Monday
Apr 26

Rain
42 °F
37 °F
22%
62%
Tuesday
Apr 27

Rain
43 °F
39 °F
100%
99%
Wednesday
Apr 28

Rain
38 °F
37 °F
30%
87%
Thursday
Apr 29

Clouds
40 °F
38 °F
0%
80%
Friday
Apr 30

Clear
41 °F
38 °F
0%
87%
Saturday
May 1

Rain
39 °F
39 °F
74%
97%
Sunday
May 2

Rain
41 °F
37 °F
20%
99%
Monday
May 3

Rain
44 °F
39 °F
100%
95%
Tuesday
May 4

Rain
39 °F
36 °F
100%
84%
Wednesday
May 5

Clouds
38 °F
36 °F
0%
74%
Thursday
May 6

Rain
40 °F
38 °F
69%
91%
Friday
May 7

Rain
39 °F
38 °F
100%
98%

Temperature 8-14 Day Outlook



Precipitation 8-14 Day Outlook




Quick Links
Lake Superior News
Lake Superior Photos
Lake Superior Videos




About Us
Contact Us
Site Map
Search Site
Advertise With Us
   
Superior.USLakes.info
THE LAKE SUPERIOR WEBSITE

Copyright 2021, Lakes Online
Privacy    |    Legal